Flag for India Weather past 2 weeks in Sultanpur, Uttar Pradesh, India

Now
70 °F

Fog.


Feels Like: 70 °F
Forecast: 68 / 88 °F
Wind: No wind

Location: Lucknow / Amausi

Current Time: Oct 24, 2014 at 3:58:08 AM

Latest Report: Oct 24, 2014 at 3:00 AM


Visibility: 1 mi

Pressure: 29.89 "Hg

Humidity: 88%

Dew point: 66 °F

Location of SultanpurLocation

Historic Weather in Sultanpur — Graph

°F

Sultanpur temperature yesterday

Maximum temperature yesterday: 86 °F (at 1:00 PM)
Minimum temperature yesterday: 70 °F (at 3:00 AM)
Average temperature yesterday: 79 °F

Past Weeks' High & Low Weather Summary

 TemperatureHumidityPressure
High102 °F (Oct 9, 2:00 PM)100% (Oct 14, 6:00 AM)30.07 "Hg (Oct 14, 6:00 AM)
Low64 °F (Oct 18, 6:00 AM)32% (Oct 12, 1:30 PM)29.56 "Hg (Oct 14, 1:00 PM)
Average79 °F72%29.87 "Hg
* Reported Oct 9 3:00 AM — Oct 24 2:00 AM, Sultanpur, Weather by CustomWeather, © 2014

Note: Actual official high and low records may vary slightly from our data, if they occured in-between our weather recording intervals... More about our weather records

Advertising

Sultanpur weather history for previous 24 hours

 ConditionsComfort  
Time TempWeatherWind HumidityBarometerVisibility
2:00 AM
Oct 24
72 °FFog.No wind88%29.89 "Hg1 mi
1:00 AM72 °FFog.No wind88%29.92 "Hg2 mi
12:00 AM72 °FFog.No wind88%29.92 "Hg2 mi
11:00 PM
Oct 23
73 °FFog.No wind89%29.92 "Hg2 mi
10:00 PM73 °FFog.No wind89%29.92 "Hg2 mi
8:30 PM75 °FFog.No wind83%29.89 "Hg2 mi
7:30 PM77 °FHaze.No wind83%29.89 "Hg2 mi
7:00 PM79 °FHaze.No wind79%29.89 "Hg2 mi
6:30 PM79 °FHaze.No wind79%29.89 "Hg2 mi
6:00 PM81 °FHaze.No wind74%29.89 "Hg2 mi
5:30 PM82 °FHaze.No wind70%29.86 "Hg2 mi
5:00 PM84 °FHaze.No wind62%29.86 "Hg2 mi
4:30 PM84 °FScattered clouds.2 mph62%29.86 "Hg2 mi
4:00 PM84 °FScattered clouds.2 mph62%29.86 "Hg2 mi
3:30 PM84 °FScattered clouds.2 mph62%29.86 "Hg2 mi
3:00 PM86 °FScattered clouds.2 mph59%29.86 "Hg2 mi
2:30 PM86 °FScattered clouds.2 mph59%29.89 "Hg2 mi
2:00 PM86 °FScattered clouds.2 mph59%29.89 "Hg2 mi
1:30 PM86 °FHaze.2 mph59%29.92 "Hg2 mi
1:00 PM86 °FHaze.3 mph59%29.92 "Hg2 mi
12:30 PM84 °FHaze.3 mph62%29.95 "Hg2 mi
12:00 PM84 °FHaze.3 mph66%29.98 "Hg2 mi
11:30 AM82 °FHaze.3 mph70%29.98 "Hg2 mi
10:00 AM77 °FHaze.3 mph74%30.01 "Hg1 mi
9:30 AM77 °FFog.2 mph79%30.01 "Hg1 mi
9:00 AM75 °FFog.2 mph83%30.01 "Hg1 mi
8:30 AM75 °FFog.No wind83%30.01 "Hg1 mi
6:00 AM70 °FFog.No wind88%29.95 "Hg1 mi
5:30 AM70 °FFog.No wind94%29.95 "Hg1 mi
5:00 AM70 °FFog.No wind94%29.92 "Hg1 mi
4:00 AM70 °FFog.No wind94%29.92 "Hg1 mi
3:00 AM70 °FFog.No wind94%29.92 "Hg1 mi
Weather by CustomWeather, © 2014

See weather overviewHow to use our weather pages